Location: Table Rock
(44.3339°N, 118.3154°W)
Time: 10:05:23
(UTC-08:00)

Daily predictions for brighter satellites

Satellite Brightness Start Highest point End
(mag) Time Altitude Azimuth Time Altitude Azimuth Time Altitude Azimuth
BREEZE-M DEB (TANK) 3.4 17:57:20 10° W 17:59:53 69° N 18:10:08 10° E
HJ-1C 4.5 18:11:46 10° SE 18:14:34 25° ENE 18:17:23 10° NNE
NOSS 3-1 (C) 4.4 18:07:42 10° NNW 18:14:41 44° NE 18:22:26 10° ESE
SKYMED 2 3.8 18:10:23 10° N 18:14:45 80° WNW 18:19:05 10° SSW
Meteor 1-28 Rocket 3.2 18:11:28 10° NNE 18:15:18 88° E 18:19:08 10° SSW
Cosmos 2181 Rocket 4.1 18:09:10 10° N 18:15:29 87° E 18:21:52 10° S
Cosmos 1850 Rocket 4.0 18:10:16 10° S 18:15:33 73° ESE 18:20:54 10° NNE
FENGYUN 3A 4.1 18:11:24 10° SE 18:16:24 39° ENE 18:21:25 10° N
Thor Agena Rocket 4.4 18:12:50 10° N 18:17:45 54° WNW 18:22:39 10° SW
Cosmos 1709 Rocket 4.2 18:13:23 10° S 18:19:34 79° W 18:25:44 10° N
Cosmos 2208 Rocket 4.1 18:15:49 10° NNW 18:21:18 90° WSW 18:26:41 10° SSE
Cosmos 1980 4.3 18:16:38 10° NNW 18:21:51 36° NE 18:27:02 10° ESE
Cosmos 2074 Rocket 4.2 18:16:05 10° SSE 18:22:03 49° E 18:28:05 10° NNE
Helios 1B rocket 4.3 18:21:05 10° ENE 18:22:32 12° E 18:23:59 10° ESE
BREEZE-M DEB (TANK) 2.0 18:22:00 10° WNW 18:24:19 81° SSW 18:29:23 10° ESE
NOSS 0 Rocket 4.2 18:19:09 10° NNW 18:25:07 50° ENE 18:31:04 10° SE
Cosmos 2333 Rocket 2.5 18:20:01 10° NNW 18:25:34 47° ENE 18:31:07 10° SE
METEOR-M 4.1 18:20:37 10° SSE 18:25:57 84° ENE 18:31:20 10° NNW
Cosmos 1437 4.2 18:25:12 10° NNE 18:27:38 19° ENE 18:30:02 10° ESE
Cosmos 2184 Rocket 4.1 18:24:44 10° SSE 18:30:49 55° E 18:36:53 10° NNE
Cosmos 1975 4.3 18:29:43 10° SE 18:32:16 16° E 18:34:48 10° NE
Helios 1A 4.3 18:29:35 10° ESE 18:32:39 20° ENE 18:35:45 10° NNE
Okean 1-7 Rocket 3.7 18:34:12 10° N 18:38:44 83° W 18:43:12 10° S
Meteor 1-11 Rocket 4.2 18:33:20 10° SSW 18:39:10 71° WNW 18:45:08 10° N
Nadezhda 3 Rocket 4.4 18:39:41 10° N 18:45:28 40° ENE 18:51:15 10° SE
Cosmos 841 Rocket 4.3 18:43:15 10° N 18:47:48 30° ENE 18:50:47 18° ESE
Cosmos 2082 4.3 18:45:06 10° SSE 18:50:09 34° ESE 18:55:14 10° NE
SL-19 R/B 4.4 18:46:41 10° SSE 18:52:26 68° ENE 18:58:39 10° NNW
Meteor 1-5 Rocket 4.3 18:48:19 10° S 18:54:16 83° E 19:00:08 10° NNE
Cosmos 1763 Rocket 3.8 18:51:44 10° N 18:56:38 42° ENE 19:00:20 17° SE
Cosmos 405 Rocket 2.7 18:53:04 10° N 18:57:08 69° ENE 19:01:06 10° SSE
Cosmos 1455 Rocket 3.5 18:53:53 10° SSE 18:57:56 38° E 19:01:58 10° NNE
Cosmos 2154 Rocket 4.2 18:54:36 10° SSE 19:00:40 50° E 19:06:44 10° NNE
Cosmos 2341 Rocket 4.4 18:57:02 10° SSE 19:02:51 39° E 19:08:42 10° NNE
Cosmos 2285 Rocket 4.3 18:56:32 10° NNW 19:02:58 72° WSW 19:09:19 10° S
H-2A R/B 2.6 19:00:05 10° SSE 19:03:47 70° ENE 19:07:34 10° N
Cosmos 332 Rocket 4.2 18:59:45 10° N 19:04:24 42° ENE 19:06:49 24° ESE
FengYun 1-2 T 4.2 18:59:16 10° SSE 19:04:45 85° WSW 19:10:19 10° NNW
SAR-Lupe-4 3.8 19:03:21 24° SE 19:05:11 46° ENE 19:08:39 10° N
Cosmos 2237 Rocket 2.1 19:00:35 10° NNW 19:06:18 71° ENE 19:11:41 12° SSE
ALOS 2.5 19:03:15 10° S 19:07:54 71° WSW 19:12:35 10° NNW
CZ-2D R/B 3.2 19:05:26 13° SSE 19:08:45 59° ENE 19:12:32 10° N
Cosmos 2297 Rocket 2.5 19:03:50 10° S 19:09:05 41° ESE 19:14:22 10° NE
SJ-6B 4.3 19:07:32 10° SSW 19:11:14 39° W 19:14:54 10° NNW
Cosmos 371 Rocket 3.8 19:08:31 10° N 19:13:07 39° ENE 19:14:30 32° E
Cosmos 1066 Rocket 4.4 19:09:02 10° N 19:14:28 48° ENE 19:18:03 20° SE
Cosmos 2219 Rocket 2.7 19:09:44 10° NNW 19:15:15 61° WSW 19:20:46 10° S
COSMOS 2428 4.4 19:10:57 10° NW 19:16:01 34° WSW 19:21:05 10° SSW
Cosmos 1441 Rocket 3.2 19:19:22 10° N 19:23:20 64° ENE 19:24:33 40° SE
Resurs 01 Rocket 2.1 19:20:55 10° S 19:25:16 61° W 19:29:39 10° NNW
Cosmos 962 Rocket 4.4 19:21:10 10° S 19:27:13 59° E 19:33:13 10° NNE
Cosmos 2227 Rocket 2.1 19:24:13 10° SSW 19:29:52 79° ESE 19:35:34 10° NNE
Resurs 1-3 4.0 19:26:10 10° S 19:30:31 64° WSW 19:34:54 10° NNW
Cosmos 1892 Rocket 4.4 19:30:27 10° NNW 19:34:42 51° W 19:38:56 10° S
OTV 4 2.6 19:32:50 10° SW 19:34:16 19° SSW 19:34:16 19° SSW
Spot 2 Rocket 4.2 19:31:56 10° S 19:36:52 54° W 19:41:53 10° NNW
Abrixas rocket 3.1 19:34:56 10° W 19:38:06 43° NNW 19:38:06 43° NNW
Gbstr 26 Del rocket 4.1 19:39:09 10° WNW 19:42:27 29° N 19:43:04 27° N
SL-16 R/B 2.2 19:38:09 10° NNW 19:43:48 62° ENE 19:44:57 51° ESE
ERS-1 Rocket 3.8 19:44:59 34° NE 19:44:59 34° NE 19:48:40 10° N
GEOS 3 Rocket 3.5 19:42:37 40° ENE 19:44:29 66° SE 19:49:44 10° SSW
USA 186 3.9 19:47:52 18° NNW 19:47:52 18° NNW 19:48:46 10° NNW
Meteor 1-12 Rocket 4.3 19:40:16 10° S 19:46:14 87° W 19:52:10 10° N
Cosmos 2218 Rocket 4.4 19:49:20 40° ENE 19:49:20 40° ENE 19:54:10 10° NNE
NOSS 3-1 (A) 4.0 19:41:48 10° NW 19:49:24 85° SW 19:54:05 30° SSE
Cosmos 1939 Rocket 4.2 19:54:17 30° N 19:54:17 30° N 19:56:27 10° N
Envisat 2.8 19:52:51 66° SE 19:53:26 74° ENE 19:58:31 10° N
ATLAS 2AS CENTAUR R/B 3.5 19:47:21 10° NNW 19:55:01 43° NE 19:56:44 38° ENE
Atlas Centaur 2 4.0 19:50:17 10° SW 19:55:28 21° S 19:55:41 21° S
Aureole 2 Rocket 4.3 19:54:39 10° NNW 19:56:11 25° NNW 19:56:11 25° NNW
Helios 1B rocket 2.8 19:54:09 10° N 19:58:17 65° WNW 20:02:22 10° SSW
Cosmos 1295 Rocket 4.4 19:59:40 10° S 20:05:55 89° W 20:12:17 10° N
Helios 1A 4.3 20:06:13 25° SSW 20:08:00 38° W 20:11:53 10° NNW
Cosmos 1975 4.1 20:04:36 10° SSW 20:08:25 40° WNW 20:12:17 10° N
USA 32 4.5 20:04:15 10° NNW 20:09:24 60° W 20:12:21 25° SSW
Cosmos 2333 Rocket 4.0 20:04:45 10° NW 20:09:35 28° WSW 20:14:24 10° SSW
SL-8 Rocket 3.8 20:06:42 30° S 20:09:59 78° E 20:16:19 10° N
ATLAS CENTAUR R/B 4.2 20:08:02 10° WSW 20:08:30 13° WSW 20:08:30 13° WSW
Cosmos 1602 Rocket 4.1 20:08:07 10° NNW 20:12:17 59° W 20:12:17 59° W
Cosmos 1626 Rocket 4.3 20:12:08 10° NNW 20:16:28 52° W 20:16:28 52° W
Cosmos 540 Rocket 4.3 20:31:20 10° NNW 20:34:57 46° NW 20:34:57 46° NW
H-2A R/B 4.3 20:50:02 17° N 20:50:02 17° N 20:51:23 10° N
Cosmos 2297 Rocket 3.7 20:48:08 10° WSW 20:53:12 33° NW 20:58:18 10° N
SL-16 R/B 4.3 21:23:18 10° NW 21:26:53 20° W 21:26:53 20° W
ATLAS 2AS CENTAUR R/B 3.8 21:38:33 10° NW 21:44:11 45° WNW 21:44:11 45° WNW
